Centauri 8

operational
NORAD ID: 62714 Int'l Des: 2025-009 Owner: FLEET Country: AU
LEOCIRCULARRETROGRADESSO

About Centauri 8

Description loading...

Live Position

Loading 3D Globe...

Upcoming Passes

Altitude History

Altitude vs Time

uPlot chart will show altitude changes over time

Two-Line Element Set

1 62714U 25009DK 25315.18255503 .00006961 00000-0 62793-3 0 9993
2 62714 97.7251 33.2399 0002817 126.8905 233.2574 14.95842792 44860
Epoch: Nov 11, 2025 • Age: 10 hours

Current Status

Altitude 581.8 km
Velocity 7.57 km/s
Sub-Earth Point -0.69°S, 59.7°W
Launch Date Jan 14, 2025
Age 0.8 years
Type other

Technical Details

Classification Payload
Mass 25.00 kg
Dry Mass 25.00 kg
Total Mass 25.00 kg
Length 0.30 m
Diameter 0.20 m
Span 2.00 m
Shape Box+2 pan
Manufacturer TERRAN
Bus Type Cubesat 12U
Phase Status In Orbit
Owner/State FLEET/AU

Large Constellations

Loading constellations...